Location: Le Pont-de-Coulogne
(50.9242°N, 1.8700°E)
Time: 07:33:54
(UTC+00:00)

MetOp-A - Pass Details

Date: 15 May 2026
Orbit: 519 x 765 km, 98.3° (Epoch: 6 June)

Event Time Altitude Azimuth Distance (km) Brightness Sun altitude
Exits shadow 23:42:46 44° 166° (SSE) 993 4.1 -20.0°
Maximum altitude 23:44:21 88° 250° (WSW) 712 3.7 -20.0°
Drops below altitude 10° 23:49:00 10° 345° (NNW) 2,110 7.4 -20.0°
Sets 23:51:10 0° 346° (NNW) 2,989 8.5 -20.0°
